Temp
-7 -7 -7 -7 -7 -7 -7 -8 -7 -7 -7 -8 -8 -8 -8 -8 -8 -7 -7 -7 -7 -7 -7 -7 -7 -7 -7 -7 -7 -7 -7 -6 -6 -7 -7 -6 -6 -6 -6 -6 -6 -6 -6
-7 -7 -7 -7 -7 -7 -7 -8 -7 -7 -7 -7 -8 -7 -8 -8 -8 -8 -7 -7 -7 -7 -7 -7 -7 -7 -7 -7 -7 -7 -7 -7 -7 -6 -6 -6 -6 -6 -6 -6 -6 -6 -6
-7 -7 -7 -7 -7 -7 -7 -7 -7 -8 -7 -7 -7 -7 -7 -8 -8 -8 -7 -7 -7 -7 -7 -7 -6 -6 -7 -7 -7 -7 -7 -7 -7 -7 -6 -7 -7 -6 -6 -6 -6 -7 -6
-7 -7 -6 -7 -7 -8 -8 -8 -8 -7 -7 -7 -7 -7 -7 -8 -8 -8 -8 -8 -8 -7 -7 -7 -7 -6 -7 -7 -7 -7 -7 -7 -7 -7 -7 -7 -7 -7 -7 -7 -7 -7 -7
-7 -7 -7 -7 -7 -8 -7 -7 -8 -8 -7 -8 -8 -8 -7 -8 -7 -7 -8 -8 -7 -8 -7 -7 -7 -7 -7 -7 -7 -7 -7 -7 -7 -7 -7 -7 -7 -6 -7 -7 -7 -7 -7
-7 -7 -7 -7 -7 -8 -8 -8 -8 -8 -8 -7 -8 -8 -9 -8 -8 -7 -7 -7 -7 -7 -8 -8 -7 -7 -7 -8 -8 -7 -7 -7 -7 -7 -7 -7 -7 -7 -6 -6 -6 -7 -7
-7 -7 -7 -7 -7 -7 -8 -8 -8 -8 -8 -7 -8 -8 -8 -8 -8 -8 -8 -7 -7 -7 -7 -8 -7 -7 -7 -8 -7 -8 -7 -7 -7 -7 -7 -7 -8 -7 -7 -7 -7 -7 -7
-7 -7 -7 -7 -7 -7 -8 -8 -8 -8 -7 -8 -8 -8 -8 -8 -7 -8 -8 -7 -7 -7 -7 -7 -7 -8 -8 -8 -8 -8 -7 -7 -7 -7 -7 -8 -8 -7 -7 -7 -7 -7 -7
-7 -7 -8 -8 -7 -7 -7 -7 -7 -8 -8 -8 -8 -7 -7 -7 -8 -7 -7 -8 -7 -7 -7 -7 -7 -8 -8 -8 -8 -8 -7 -8 -8 -8 -8 -8 -8 -8 -8 -8 -8 -8 -8
-7 -7 -7 -8 -8 -8 -8 -8 -8 -7 -7 -8 -8 -8 -8 -7 -7 -7 -8 -8 -8 -8 -8 -7 -8 -8 -8 -8 -8 -8 -8 -8 -8 -8 -8 -8 -8 -8 -8 -8 -8 -8 -8
-7 -7 -7 -7 -7 -8 -8 -8 -8 -8 -8 -7 -7 -6 -5 -7 -7 -7 -8 -7 -7 -8 -8 -8 -8 -8 -8 -8 -8 -8 -8 -8 -8 -8 -8 -8 -8 -8 -8 -8 -8 -8 -8
-7 -7 -7 -8 -7 -7 -7 -7 -7 -7 -7 -7 -7 -7 -7 -8 -8 -7 -7 -7 -7 -7 -8 -7 -8 -8 -8 -8 -8 -8 -8 -8 -8 -8 -8 -8 -8 -8 -7 -8 -8 -9 -9
-7 -7 -8 -8 -8 -8 -8 -8 -8 -8 -8 -8 -7 -7 -8 -7 -7 -8 -8 -8 -7 -8 -8 -8 -8 -8 -9 -8 -8 -8 -8 -8 -8 -8 -8 -8 -8 -8 -8 -8 -9 -9 -9
-7 -8 -8 -8 -8 -8 -8 -8 -8 -8 -8 -8 -8 -7 -7 -8 -8 -8 -8 -8 -8 -7 -7 -8 -9 -9 -8 -8 -8 -8 -8 -7 -7 -7 -8 -8 -8 -8 -9 -9 -9 -10 -10
-8 -8 -8 -8 -8 -8 -8 -8 -8 -8 -9 -9 -9 -8 -8 -9 -8 -9 -8 -9 -8 -8 -9 -9 -9 -8 -8 -8 -8 -7 -8 -9 -8 -8 -9 -9 -10 -10 -10 -10 -10 -10 -10
-8 -8 -8 -8 -8 -8 -8 -9 -9 -10 -10 -10 -10 -9 -9 -9 -9 -9 -9 -9 -9 -9 -10 -10 -9 -9 -9 -9 -8 -8 -8 -9 -9 -9 -9 -9 -10 -10 -10 -10 -10 -10 -11
-8 -8 -8 -8 -9 -9 -9 -10 -10 -11 -11 -11 -11 -10 -10 -10 -10 -10 -11 -11 -11 -11 -11 -11 -11 -11 -10 -10 -10 -10 -10 -10 -10 -10 -10 -10 -10 -10 -10 -11 -11 -11 -11
-9 -9 -9 -9 -9 -10 -11 -11 -11 -12 -13 -12 -12 -11 -12 -12 -12 -11 -11 -11 -12 -12 -11 -11 -11 -11 -11 -11 -10 -10 -10 -10 -10 -10 -10 -11 -11 -11 -11 -12 -12 -12 -12
-9 -9 -9 -10 -11 -11 -12 -12 -13 -13 -13 -13 -13 -12 -12 -12 -12 -12 -12 -12 -11 -11 -11 -11 -11 -11 -11 -11 -11 -11 -11 -11 -11 -11 -11 -11 -11 -12 -12 -12 -12 -12 -12
-10 -10 -11 -11 -12 -12 -13 -13 -13 -14 -14 -14 -14 -13 -13 -13 -12 -12 -12 -12 -11 -11 -11 -11 -11 -11 -11 -11 -11 -11 -11 -11 -11 -12 -12 -12 -12 -12 -12 -12 -13 -13 -13
-10 -11 -11 -11 -12 -12 -12 -13 -13 -13 -14 -14 -14 -14 -13 -13 -13 -13 -12 -12 -12 -12 -12 -12 -12 -12 -12 -12 -12 -12 -12 -12 -12 -12 -12 -12 -12 -12 -12 -13 -13 -13 -12
-11 -11 -11 -11 -11 -11 -11 -12 -12 -13 -13 -14 -14 -14 -14 -13 -13 -13 -13 -12 -12 -12 -12 -12 -12 -12 -12 -13 -13 -12 -12 -12 -13 -13 -13 -13 -13 -13 -13 -13 -13 -13 -12
-11 -11 -11 -11 -11 -11 -11 -11 -12 -12 -12 -13 -13 -13 -13 -13 -13 -13 -12 -12 -12 -12 -12 -12 -12 -13 -13 -13 -13 -13 -13 -13 -13 -13 -13 -13 -13 -13 -13 -13 -13 -13 -13
-11 -11 -11 -11 -11 -11 -12 -12 -12 -12 -12 -12 -13 -13 -13 -13 -13 -13 -13 -13 -14 -13 -13 -13 -13 -13 -13 -13 -13 -13 -13 -13 -13 -13 -13 -13 -13 -13 -13 -13 -13 -13 -13
-11 -11 -12 -12 -12 -12 -12 -12 -12 -12 -12 -12 -13 -13 -13 -13 -13 -13 -13 -13 -13 -13 -13 -13 -13 -13 -13 -13 -13 -13 -13 -13 -13 -13 -13 -13 -13 -13 -13 -14 -14 -14 -14
-12 -12 -12 -12 -12 -12 -12 -12 -12 -13 -13 -13 -13 -13 -13 -13 -13 -13 -13 -13 -13 -13 -13 -13 -13 -14 -14 -14 -14 -14 -14 -14 -14 -14 -14 -14 -14 -14 -14 -15 -15 -15 -15
Height
5873 5873 5874 5875 5877 5880 5883 5885 5887 5887 5890 5893 5895 5897 5898 5900 5901 5903 5904 5906 5906 5910 5912 5913 5915 5917 5919 5921 5922 5922 5922 5922 5923 5924 5924 5923 5921 5919 5918 5918 5917 5917 5916
5869 5870 5870 5871 5874 5876 5879 5879 5881 5883 5885 5886 5887 5889 5891 5893 5897 5900 5901 5901 5903 5904 5907 5909 5910 5913 5916 5918 5918 5918 5918 5918 5918 5918 5919 5918 5916 5916 5915 5915 5913 5913 5912
5867 5867 5865 5866 5868 5871 5872 5872 5873 5875 5878 5880 5880 5882 5882 5886 5889 5891 5894 5897 5898 5900 5901 5903 5905 5907 5909 5911 5912 5912 5913 5913 5914 5914 5914 5914 5913 5912 5911 5910 5909 5908 5907
5861 5862 5861 5861 5864 5863 5863 5863 5864 5869 5873 5873 5874 5876 5877 5879 5881 5884 5887 5889 5891 5893 5895 5898 5899 5901 5902 5904 5906 5907 5908 5908 5908 5909 5908 5908 5909 5908 5906 5904 5903 5902 5901
5856 5856 5856 5856 5857 5855 5858 5848 5853 5858 5865 5868 5868 5868 5870 5873 5875 5877 5880 5882 5885 5887 5889 5891 5892 5894 5894 5895 5898 5900 5901 5902 5902 5902 5902 5902 5901 5901 5901 5900 5898 5897 5895
5851 5850 5850 5850 5849 5848 5850 5847 5849 5849 5854 5858 5859 5860 5861 5865 5869 5871 5873 5875 5877 5880 5881 5883 5885 5887 5887 5889 5891 5892 5893 5893 5893 5894 5894 5894 5893 5892 5892 5892 5891 5889 5888
5847 5846 5845 5844 5843 5843 5841 5840 5841 5843 5845 5850 5852 5851 5854 5857 5858 5862 5866 5869 5871 5873 5874 5875 5876 5877 5878 5881 5883 5884 5885 5885 5886 5887 5886 5885 5884 5883 5883 5882 5882 5881 5880
5842 5841 5840 5838 5837 5837 5837 5834 5835 5836 5837 5839 5842 5844 5846 5849 5850 5853 5857 5860 5863 5865 5867 5867 5868 5869 5870 5872 5873 5875 5877 5877 5878 5877 5878 5877 5876 5876 5875 5873 5873 5872 5870
5838 5837 5835 5833 5832 5830 5829 5829 5829 5830 5829 5829 5831 5832 5834 5837 5840 5843 5846 5849 5852 5856 5858 5859 5861 5862 5864 5864 5865 5866 5869 5870 5870 5870 5870 5869 5868 5867 5866 5865 5862 5860 5858
5833 5832 5830 5829 5828 5826 5824 5823 5823 5823 5822 5822 5824 5823 5824 5827 5829 5831 5836 5838 5840 5845 5848 5851 5852 5854 5855 5857 5858 5859 5861 5861 5861 5861 5861 5860 5859 5857 5856 5854 5852 5849 5847
5826 5825 5824 5823 5822 5821 5820 5820 5818 5817 5816 5816 5815 5815 5813 5815 5816 5820 5825 5827 5830 5834 5837 5840 5842 5845 5847 5848 5849 5850 5852 5852 5853 5852 5851 5850 5849 5848 5846 5843 5841 5839 5836
5819 5819 5819 5818 5817 5817 5816 5815 5813 5813 5812 5811 5809 5807 5807 5804 5804 5807 5812 5816 5819 5823 5826 5829 5831 5833 5837 5839 5840 5841 5842 5841 5841 5841 5841 5840 5839 5837 5835 5833 5829 5825 5823
5815 5814 5814 5813 5812 5811 5809 5808 5806 5805 5805 5803 5802 5799 5798 5796 5797 5800 5803 5805 5808 5813 5816 5820 5822 5825 5829 5830 5830 5830 5831 5832 5832 5831 5829 5828 5828 5825 5823 5820 5818 5814 5812
5809 5809 5808 5808 5806 5805 5803 5803 5801 5799 5798 5797 5796 5794 5794 5793 5793 5796 5796 5798 5801 5802 5805 5808 5811 5815 5818 5820 5820 5820 5820 5820 5817 5818 5818 5817 5816 5814 5812 5812 5809 5806 5804
5802 5802 5802 5801 5800 5799 5797 5796 5794 5793 5792 5791 5790 5789 5789 5789 5789 5789 5789 5790 5791 5793 5797 5800 5803 5805 5807 5809 5806 5808 5805 5806 5808 5808 5807 5807 5807 5806 5804 5803 5801 5798 5796
5795 5794 5793 5793 5793 5791 5789 5788 5787 5786 5786 5785 5785 5784 5784 5783 5783 5782 5782 5782 5785 5786 5788 5791 5793 5795 5797 5798 5800 5798 5796 5795 5798 5800 5800 5799 5798 5797 5796 5794 5792 5790 5788
5789 5787 5786 5785 5783 5781 5780 5778 5777 5777 5777 5777 5777 5777 5778 5778 5778 5779 5779 5779 5780 5782 5784 5785 5786 5788 5789 5791 5792 5793 5792 5793 5794 5793 5792 5791 5791 5789 5788 5787 5785 5783 5782
5781 5780 5779 5777 5775 5772 5771 5769 5768 5768 5770 5771 5770 5770 5771 5772 5773 5775 5776 5777 5778 5779 5781 5782 5783 5784 5784 5785 5785 5786 5786 5786 5786 5784 5784 5783 5782 5782 5781 5779 5778 5776 5775
5775 5774 5772 5771 5769 5767 5765 5763 5763 5762 5763 5764 5765 5766 5766 5767 5768 5770 5771 5773 5773 5774 5776 5776 5777 5778 5778 5778 5778 5778 5778 5778 5777 5777 5776 5776 5776 5775 5774 5773 5772 5770 5768
5770 5769 5768 5767 5766 5765 5763 5761 5760 5759 5759 5759 5760 5761 5761 5763 5764 5764 5765 5767 5768 5769 5770 5770 5771 5771 5771 5771 5771 5772 5772 5771 5771 5771 5770 5769 5769 5769 5768 5767 5765 5763 5761
5767 5766 5765 5764 5763 5763 5762 5760 5759 5758 5757 5756 5756 5756 5758 5758 5759 5760 5761 5762 5763 5764 5764 5765 5766 5766 5766 5767 5767 5766 5765 5765 5765 5765 5764 5764 5763 5762 5761 5760 5758 5756 5753
5766 5766 5764 5763 5762 5761 5760 5760 5759 5758 5756 5755 5755 5755 5756 5756 5757 5758 5758 5759 5760 5760 5761 5761 5762 5762 5762 5762 5761 5760 5760 5760 5759 5759 5758 5758 5756 5756 5754 5753 5751 5748 5744
5764 5764 5763 5762 5761 5759 5758 5760 5759 5757 5756 5755 5754 5754 5755 5755 5755 5755 5755 5756 5756 5756 5756 5756 5756 5756 5756 5756 5756 5755 5755 5754 5753 5752 5751 5751 5750 5748 5747 5745 5742 5739 5736
5762 5761 5761 5760 5760 5759 5758 5758 5758 5757 5757 5755 5755 5755 5754 5754 5754 5754 5754 5754 5754 5754 5753 5752 5751 5751 5750 5750 5749 5748 5747 5746 5745 5745 5744 5743 5742 5741 5739 5736 5733 5729 5726
5760 5759 5759 5759 5758 5758 5757 5757 5756 5756 5756 5755 5754 5754 5753 5753 5752 5750 5750 5750 5749 5749 5749 5748 5747 5745 5743 5742 5742 5741 5740 5739 5738 5738 5737 5736 5734 5732 5729 5725 5722 5718 5715
5756 5756 5756 5756 5756 5755 5755 5755 5754 5753 5752 5751 5751 5750 5750 5749 5747 5746 5745 5744 5743 5742 5742 5741 5738 5737 5736 5736 5735 5733 5732 5732 5732 5731 5730 5728 5725 5722 5719 5716 5712 5708 5704
Wind_Speed
19 23 23 20 21 20 22 24 24 24 25 25 25 24 24 23 23 23 21 20 19 18 19 16 17 16 16 17 16 14 14 12 11 11 11 13 14 13 11 13 14 14 13
22 22 25 25 23 23 23 26 27 27 27 29 28 27 26 26 26 27 26 25 23 20 20 19 18 18 18 20 19 16 17 15 15 13 13 15 16 16 16 16 15 17 16
18 24 23 24 22 28 27 28 29 31 31 32 30 29 29 29 28 29 28 28 27 25 25 24 23 21 22 21 20 18 17 16 17 16 16 17 18 18 18 19 18 19 20
20 19 20 22 27 30 33 36 32 30 32 34 32 31 32 30 30 30 30 28 29 29 29 28 27 26 23 24 23 24 21 19 20 21 21 20 20 19 20 22 23 23 23
19 17 19 22 25 31 33 45 38 32 35 35 35 34 35 33 33 32 33 32 33 31 30 29 29 32 28 28 28 27 26 25 24 24 24 24 24 22 23 23 23 25 26
16 18 19 21 24 28 33 30 37 29 36 39 36 36 36 36 35 37 36 34 33 33 31 32 32 33 27 28 30 29 27 26 26 26 26 26 26 26 27 26 25 25 27
12 15 17 17 21 22 27 30 29 32 25 45 41 36 36 37 38 39 39 39 35 34 33 31 33 29 29 31 30 30 28 26 26 26 26 27 28 30 30 31 30 30 31
12 15 15 15 19 23 25 25 26 29 27 39 41 34 43 40 38 40 39 38 37 36 34 34 32 31 29 29 29 30 28 28 28 28 28 31 32 32 32 33 33 35 37
9 11 10 10 14 18 23 25 24 23 23 25 28 34 39 50 42 45 41 38 36 37 38 36 33 32 32 31 31 31 29 29 30 31 32 33 35 36 36 37 40 41 42
9 9 10 11 12 13 14 17 19 21 26 29 28 26 30 33 42 52 47 41 39 40 41 39 37 35 34 35 32 31 31 33 33 34 35 36 37 38 40 41 43 45 47
12 11 13 13 13 14 17 19 18 18 17 19 24 28 24 30 30 45 45 43 43 44 44 42 43 39 37 36 33 33 34 36 37 37 38 40 42 41 43 45 48 50 51
14 15 16 16 16 17 17 19 20 21 16 16 17 20 21 25 28 48 48 45 46 47 49 49 46 41 37 37 36 36 41 34 35 37 39 43 44 44 45 48 47 41 45
16 17 19 20 20 20 20 21 21 19 21 18 18 15 17 29 27 37 50 45 44 47 45 41 30 24 28 36 34 34 34 37 38 42 43 38 44 42 44 40 43 40 39
19 20 21 23 24 24 23 22 22 23 21 21 19 19 16 23 18 25 30 37 42 45 48 33 25 31 33 34 35 36 39 39 43 45 47 39 43 37 34 32 33 33 35
22 23 24 25 27 27 27 25 24 23 22 22 21 18 21 23 28 29 27 24 31 32 31 31 34 28 36 38 35 41 48 37 40 41 37 35 36 34 33 35 36 36 37
23 24 26 28 28 27 27 27 26 25 25 25 23 20 19 20 25 27 26 28 31 30 27 26 29 30 31 33 42 42 39 26 29 32 32 31 31 32 35 36 35 33 32
23 25 26 26 26 26 26 26 28 26 27 28 27 26 23 20 19 20 20 18 17 17 18 19 21 23 25 26 28 29 28 28 30 32 33 34 34 33 31 29 26 23 22
22 22 21 19 15 16 17 20 24 26 27 29 29 27 26 26 24 23 23 22 23 24 25 24 25 25 26 29 29 30 31 33 35 32 29 26 24 23 21 20 19 19 19
14 9 5 4 7 9 10 12 13 18 22 25 28 28 27 28 28 28 30 29 29 29 29 28 28 28 27 28 27 28 27 25 24 22 22 21 21 19 18 18 18 19 21
5 4 6 8 10 11 11 12 12 11 14 18 21 25 25 25 26 27 27 27 28 29 29 27 27 26 25 23 22 22 20 20 19 19 18 19 19 18 19 19 19 21 24
7 6 4 5 6 7 9 11 11 10 10 12 14 15 20 21 20 20 23 23 23 23 22 22 22 21 21 20 20 19 19 19 18 18 19 19 19 20 19 19 21 25 30
5 3 4 5 5 5 8 9 9 8 8 9 10 11 10 10 13 14 14 13 14 16 18 19 19 18 17 18 18 18 18 19 19 20 19 18 19 18 20 24 28 31 33
6 4 2 0 2 5 6 7 7 7 7 6 6 7 8 9 10 11 11 12 13 14 14 16 16 17 18 19 20 21 21 22 22 22 20 19 20 21 24 27 29 31 35
8 7 3 1 0 1 2 2 3 3 4 4 4 4 3 4 6 7 9 10 11 13 15 17 18 20 21 23 25 26 27 28 27 24 22 22 24 25 27 29 31 35 37
9 8 6 4 4 5 5 6 7 7 6 7 8 9 10 11 10 10 11 13 15 17 19 23 25 27 28 28 28 29 28 27 25 25 25 26 29 33 34 33 34 37 38
15 13 12 11 11 11 12 12 12 13 14 14 15 15 16 16 16 16 17 17 19 21 21 29 31 29 28 29 30 30 30 30 29 28 31 34 37 38 37 36 37 38 37
Wind_Direction
243 241 240 243 239 230 228 231 233 225 221 227 233 233 234 233 235 236 240 243 236 232 231 241 249 246 244 246 242 242 247 255 256 270 280 283 288 293 302 308 307 308 298
245 234 239 245 245 246 234 229 234 233 227 226 228 231 233 233 238 244 242 241 244 238 241 246 245 247 246 244 242 245 245 255 260 271 281 291 293 295 290 289 294 301 300
250 246 248 249 247 245 245 236 231 231 234 232 229 227 232 234 235 238 241 245 246 245 246 248 252 254 258 255 253 252 252 260 264 264 273 279 281 282 283 281 282 286 291
266 259 259 256 247 247 249 246 235 235 237 237 235 236 236 236 238 243 243 240 242 249 251 255 257 256 257 263 263 266 262 265 269 273 277 279 276 276 277 277 280 282 285
275 273 263 262 258 247 243 245 236 225 236 238 235 236 239 240 242 244 247 246 246 248 255 256 259 259 257 264 266 267 264 264 270 274 274 276 276 275 274 274 276 279 282
277 273 274 269 261 262 259 263 271 239 245 235 232 231 237 240 244 245 244 248 249 247 258 247 255 255 259 263 266 268 268 268 270 273 274 276 278 281 283 283 282 282 285
276 275 280 283 272 273 272 265 272 266 256 237 232 233 238 240 242 244 247 248 250 250 250 251 252 251 255 257 261 264 266 267 266 267 270 272 272 276 281 283 285 285 285
280 284 288 279 269 266 268 273 266 272 269 258 256 245 246 241 245 249 249 246 248 251 249 250 252 253 251 253 254 258 261 262 264 265 268 270 274 277 280 282 283 283 284
282 288 293 298 289 279 271 267 269 267 274 268 271 265 260 243 244 244 247 244 245 250 251 250 250 251 254 253 249 254 261 264 266 268 271 274 277 280 282 283 283 285 286
280 290 295 293 299 300 292 283 278 279 271 259 259 262 252 250 264 245 237 240 241 246 249 251 250 249 249 251 254 258 260 263 266 270 272 273 277 278 281 283 285 286 289
287 295 301 304 307 299 294 299 292 287 289 270 271 257 270 243 264 235 236 240 241 243 247 251 248 247 249 252 255 260 261 263 267 269 272 277 277 278 283 282 282 284 286
285 290 295 297 298 300 300 295 287 287 285 286 285 257 259 260 257 242 238 234 237 242 242 244 247 246 248 250 256 259 264 273 275 271 276 276 278 281 287 287 287 283 286
283 283 289 293 295 297 295 296 296 292 288 286 282 284 248 241 255 249 247 233 233 242 237 248 247 251 260 264 261 262 268 274 274 280 285 275 285 281 278 282 279 279 276
285 283 286 289 293 295 293 291 289 289 285 285 275 272 259 252 238 238 246 232 242 239 236 245 248 252 258 257 259 262 267 268 257 262 279 275 268 271 273 270 271 272 279
285 285 286 288 291 291 288 284 278 272 268 270 273 266 264 238 252 254 252 256 254 255 252 249 255 261 255 255 250 269 269 247 264 270 269 267 266 268 270 272 276 279 283
284 285 286 288 289 286 281 277 270 261 254 253 254 252 250 252 245 250 254 248 250 250 250 254 257 257 247 250 251 258 271 267 263 264 264 266 271 276 279 282 284 287 288
279 284 288 290 287 283 277 272 265 256 245 246 246 246 243 242 243 243 247 242 240 248 251 247 246 249 250 249 250 254 257 260 267 271 274 277 281 282 282 284 286 289 293
282 288 290 290 289 288 283 274 268 261 249 246 252 250 246 244 241 240 240 239 241 243 246 248 250 252 254 254 255 260 263 266 270 274 277 278 279 279 280 282 288 293 297
280 279 288 344 353 344 326 306 290 275 264 256 256 258 255 250 247 244 244 247 250 253 254 257 263 265 265 265 266 267 265 267 269 272 275 277 277 279 282 285 290 293 299
200 135 65 45 32 12 349 336 325 308 285 276 268 266 269 265 261 260 259 257 257 258 262 267 270 272 270 267 264 263 265 269 272 277 277 277 278 279 282 283 286 295 302
141 119 98 67 41 12 4 358 336 322 305 286 271 264 268 273 273 272 268 268 271 277 276 275 273 268 266 265 264 264 269 273 275 274 274 277 279 280 280 282 291 298 299
160 135 103 75 52 18 1 344 340 341 334 320 301 276 256 257 268 273 274 273 271 269 269 269 268 265 264 266 267 269 271 272 273 273 275 277 280 283 286 288 290 294 298
229 238 246 265 41 43 36 21 25 20 3 343 321 305 288 271 255 247 249 255 262 266 268 268 266 264 263 261 262 265 269 274 274 270 270 274 278 281 284 288 292 295 301
235 243 233 207 139 18 27 5 11 36 35 32 18 353 336 321 305 293 282 275 271 269 268 269 271 271 270 271 273 273 274 280 277 270 264 268 277 284 289 293 298 298 301
237 230 228 243 267 282 293 299 302 301 298 302 308 311 309 306 301 291 287 288 290 291 293 291 287 283 282 282 282 278 274 275 271 268 269 273 283 290 293 293 295 297 297
252 257 260 268 274 282 288 293 293 295 295 296 293 289 287 283 276 276 281 285 283 279 278 295 285 275 277 279 279 276 273 270 270 270 274 284 290 291 290 292 296 295 294